Location: Belfast
(54.5830°N, 5.9330°W)
Time: 14:08:29
(UTC+01:00)

ISS - Pass Details

Date: 25 May 2017
Orbit: 402 x 408 km, 51.6° (Epoch: 26 May)

Event Time Altitude Azimuth Distance (km) Brightness Sun altitude
Rises 03:14:12 0° 275° (W) 2,333 -0.2 -10.6°
Reaches altitude 10° 03:16:27 10° 264° (W) 1,469 -1.3 -10.5°
Maximum altitude 03:19:20 28° 203° (SSW) 795 -2.9 -10.3°
Drops below altitude 10° 03:22:11 10° 142° (SE) 1,460 -1.2 -10.1°
Sets 03:24:25 0° 130° (SE) 2,316 -0.1 -9.9°
